Regional Weather Roundup
Issued by NWS Portland, ME

Home | Current Version | Previous Version | Text Only | Print | Product List | Glossary On
Versions: 1 2 3 4 5 6 7 8 9 10 11 12 13 14 15 16 17 18 19 20 21 22 23 24 25 26 27 28 29 30 31 32 33 34 35 36 37 38 39 40 41 42 43 44 45 46 47 48 49 50
000
ASUS41 KGYX 300510
RWRGYX
WEATHER ROUNDUP FOR MAINE AND NEW HAMPSHIRE
NATIONAL WEATHER SERVICE GRAY ME
100 AM EDT SUN APR 30 2017

MEZ002-005-006-010-012-015-018-020-021-024-026-027-029-300600-
MAINE

CITY           SKY/WX    TMP DP  RH WIND       PRES   REMARKS
PORTLAND       CLEAR     53  30  41 N22       30.07R
SANFORD        CLEAR     57  34  41 NW8       30.08R
WISCASSET      CLEAR     53  30  41 NW8G23    30.09R
ROCKLAND       CLEAR     51  30  44 NW9G22    30.06
FRYEBURG       CLEAR     47  28  47 CALM      30.11R
LEWISTONAUBURN CLEAR     48  29  47 N12G17    30.11R
AUGUSTA        CLEAR     47  27  45 N13       30.09R
BANGOR         CLEAR     45  27  49 NW20G29   30.07R
GREENVILLE       N/A     34  22  61 NW13G32   30.04R
MILLINOCKET    PTCLDY    40  25  55 N17G23    30.08R
HOULTON        CLEAR     37  24  59 NW13G20   30.03R
PRESQUE ISLE   CLOUDY    38  23  55 NW14G22   30.05R
FRENCHVILLE    CLOUDY    34  19  54 N22G36    30.01R
CARIBOU        CLOUDY    38  24  57 NW15G22   30.04R
$$

NHZ002-005-008-009-011-012-014-300600-
NEW HAMPSHIRE

CITY           SKY/WX    TMP DP  RH WIND       PRES   REMARKS
PORTSMOUTH     CLEAR     60  34  38 NW15      30.06R
ROCHESTER      CLEAR     57  33  40 NW9       30.07R
NASHUA         CLEAR     60  36  40 NW12G17     N/A
MANCHESTER     CLEAR     59  34  39 NW8       30.08R
CONCORD        CLEAR     55  34  45 NW10      30.10R
LACONIA        CLEAR     51  31  46 NW7       30.13R
PLYMOUTH       FAIR      48  29  48 NW12      30.14R
BERLIN         CLOUDY    39  22  50 N7G16     30.15R
WHITEFIELD     CLOUDY    38  24  57 N6        30.16R
JAFFREY        CLEAR     56  41  57 VRB5      30.12R
KEENE          CLEAR     57  35  43 NW8       30.13R
LEBANON        CLEAR     50  31  48 N13G18    30.15R
MT WASHINGTON  FOG       18  18 100 NW66        N/A  VSB 1/8 WCI  -8
$$

VTZ005-007-008-300600-
VERMONT

CITY           SKY/WX    TMP DP  RH WIND       PRES   REMARKS
ST JOHNSBURY     N/A     41  23  48 MISG      30.18R
MONTPELIER     CLEAR     40  25  55 NW9       30.22R
BURLINGTON     CLEAR     44  26  49 N7        30.25R
$$

MAZ007-012-024-CTZ003-RIZ002-NYZ038-NYZ072-300600-
SOUTHERN NEW ENGLAND AND NY

CITY           SKY/WX    TMP DP  RH WIND       PRES   REMARKS
BOSTON         CLEAR     64  41  42 W14       30.07R
WORCESTER      CLEAR     56  36  47 W9        30.12R
NANTUCKET      CLOUDY    66  48  52 W16G22    30.04R
PROVIDENCE     CLEAR     65  40  39 NW10      30.09R
HARTFORD       PTCLDY    60  37  42 N8        30.14R
ALBANY         CLEAR     51  33  50 NW12G23   30.21R
NEW YORK CITY  CLOUDY    68  51  54 NW9       30.11S
$$

ANZ081-ANZ082-ANZ150-NHZ014-MEZ023>029-300600-
COASTAL MARINE OBSERVATIONS

STATION/POSITION TIME  TEMP    WIND        PRES    WAVE
                       AIR SEA DIR/SP/G            HT/PER
                 (UTC) (F)     (DEG/KT/KT) (MB)    (FT/S)
MOUNT DESERT ROC 0500   48                 1016.2R
MATINICUS ROCK   0400   51     360/ 23/ 25 1014.7R
ISLE OF SHOALS   0400   63     320/ 19/ 23 1016.0R
JEFFREYS LEDGE   0436      45                N/A     3/ 3
CASHES LEDGE BUO 0450   51 44              1015.2R   3/ 8
GEORGES BANK BUO 0350   47 41              1013.0    5/ 7
$$

.............KEY..............
   WCI - WIND CHILL
   TC  - TEMPERATURE IN CELSIUS
   VSB - VISIBILITY IN MILES
   HX  - HEAT INDEX
   FAIR- INDICATES FEW OR NO CLOUDS BELOW 12,000 FT, WITH NO
         SIGNIFICANT WEATHER AND/OR OBSTRUCTIONS TO VISIBILITY.






USA.gov is the U.S. government's official web portal to all federal, state and local government web resources and services.